Location: Unspecified
(0.0000°N, 0.0000°E)
Time: 13:32:25
(UTC+00:00)

Vanguard 2 - Pass Details

Date: 18 September 2019
Orbit: 554 x 2937 km, 32.9° (Epoch: 13 October)

Event Time Altitude Azimuth Distance (km) Brightness Sun altitude
Rises 13:12:20 0° 283° (WNW) 2,837 10.7 70.4°
Reaches altitude 10° 13:14:31 10° 272° (W) 2,059 10.2 69.8°
Maximum altitude 13:18:42 32° 207° (SSW) 1,349 9.4 68.8°
Drops below altitude 10° 13:24:41 10° 146° (SE) 2,977 10.5 67.3°
Sets 13:28:31 0° 137° (SE) 4,353 11.2 66.4°
